Weather History for Atlantis, LA

Change the Weather History Date:

Friday, January 17, 2014

  Actual Average Record
Temperature  
Mean Temperature 64 °F -  
Max Temperature 68 °F - - ()
Min Temperature 60 °F - - ()
Degree Days  
Heating Degree Days 1    
Growing Degree Days 14 (Base 50)    
Moisture  
Dew Point 42 °F    
Average Humidity 44    
Maximum Humidity 59    
Minimum Humidity 23    
Precipitation  
Precipitation 0.00 in - - ()
Sea Level Pressure  
Sea Level Pressure 30.28 in    
Wind  
Wind Speed 6 mph (WNW)    
Max Wind Speed 20 mph    
Max Gust Speed 21 mph    
Visibility 7 miles    
Events      
T = Trace of Precipitation, MM = Missing Value Source: NWS Daily Summary

Daily Weather History Graph

Daily Weather History Graph

Search for Another Location

Airport:

Trip Planner

Search our weather history database for the weather conditions in past years. The results will help you decide how hot, cold, wet, or windy it might be!

Date:

Astronomy

Jan. 17, 2014 Rise Set
Actual Time 6:50 AM CST 5:29 PM CST
Civil Twilight 6:25 AM CST 5:54 PM CST
Nautical Twilight 5:57 AM CST 6:23 PM CST
Astronomical Twilight 5:29 AM CST 6:51 PM CST
Moon 7:03 PM CST (1/17) 7:30 AM CST (1/17)
Length of Visible Light 11h 28m
Length of Day
10h 38m
Full, 98% of the Moon is Illuminated
Jan 17
Full
Jan 23
Last Quarter
Jan 30
New
Feb 6
First Quarter
Feb 14
Full

Hourly Weather History & Observations

Time (CST) Temp. Dew Point Humidity Pressure Visibility Wind Dir Wind Speed Gust Speed Precip Events Conditions
12:15 AM 60.8 °F 39.2 °F 45% 30.25 in 8.0 mi Calm Calm - N/A   Clear
12:35 AM 60.8 °F 41.0 °F 48% 30.25 in 8.0 mi Variable 4.6 mph - N/A   Clear
12:55 AM 60.8 °F 41.0 °F 48% 30.24 in 8.0 mi Calm Calm - N/A   Clear
1:15 AM 60.8 °F 41.0 °F 48% 30.24 in 9.0 mi Calm Calm - N/A   Clear
1:35 AM 60.8 °F 41.0 °F 48% 30.24 in 8.0 mi Variable 3.5 mph 12.7 mph N/A   Clear
1:55 AM 60.8 °F 41.0 °F 48% 30.24 in 7.0 mi Variable 3.5 mph - N/A   Clear
2:15 AM 60.8 °F 41.0 °F 48% 30.24 in 7.0 mi Variable 4.6 mph 13.8 mph N/A   Clear
2:35 AM 62.6 °F 42.8 °F 48% 30.23 in 7.0 mi Variable 5.8 mph 12.7 mph N/A   Clear
2:55 AM 62.6 °F 42.8 °F 48% 30.23 in 7.0 mi WSW 8.1 mph 16.1 mph N/A   Clear
3:15 AM 62.6 °F 41.0 °F 45% 30.23 in 8.0 mi WSW 10.4 mph - N/A   Clear
3:35 AM 62.6 °F 42.8 °F 48% 30.23 in 7.0 mi WSW 8.1 mph - N/A   Clear
3:55 AM 62.6 °F 42.8 °F 48% 30.23 in 7.0 mi Variable 3.5 mph 11.5 mph N/A   Clear
4:15 AM 62.6 °F 42.8 °F 48% 30.23 in 7.0 mi West 8.1 mph - N/A   Partly Cloudy
4:35 AM 62.6 °F 42.8 °F 48% 30.23 in 6.0 mi Variable 4.6 mph 12.7 mph N/A   Haze
4:55 AM 62.6 °F 42.8 °F 48% 30.23 in 7.0 mi Variable 4.6 mph 12.7 mph N/A   Clear
5:15 AM 62.6 °F 42.8 °F 48% 30.23 in 8.0 mi Variable 4.6 mph - N/A   Partly Cloudy
5:35 AM 62.6 °F 42.8 °F 48% 30.24 in 8.0 mi Calm Calm - N/A   Partly Cloudy
5:55 AM 62.6 °F 44.6 °F 52% 30.24 in 8.0 mi Variable 3.5 mph - N/A   Scattered Clouds
6:15 AM 62.6 °F 44.6 °F 52% 30.25 in 8.0 mi Calm Calm - N/A   Mostly Cloudy
6:35 AM 62.6 °F 44.6 °F 52% 30.25 in 8.0 mi Calm Calm - N/A   Mostly Cloudy
6:55 AM 64.4 °F 44.6 °F 49% 30.26 in 7.0 mi Calm Calm - N/A   Mostly Cloudy
7:15 AM 62.6 °F 44.6 °F 52% 30.26 in 8.0 mi Variable 6.9 mph - N/A   Mostly Cloudy
7:35 AM 64.4 °F 44.6 °F 49% 30.27 in 8.0 mi West 5.8 mph - N/A   Mostly Cloudy
7:55 AM 64.4 °F 44.6 °F 49% 30.27 in 7.0 mi West 5.8 mph - N/A   Scattered Clouds
8:15 AM 64.4 °F 44.6 °F 49% 30.28 in 8.0 mi West 8.1 mph - N/A   Partly Cloudy
8:35 AM 64.4 °F 46.4 °F 52% 30.30 in 8.0 mi Calm Calm - N/A   Clear
8:55 AM 66.2 °F 46.4 °F 49% 30.30 in 7.0 mi Variable 5.8 mph - N/A   Clear
9:15 AM 66.2 °F 46.4 °F 49% 30.31 in 7.0 mi Calm Calm - N/A   Clear
9:35 AM 66.2 °F 46.4 °F 49% 30.32 in 8.0 mi Variable 4.6 mph - N/A   Mostly Cloudy
9:55 AM 66.2 °F 46.4 °F 49% 30.32 in 7.0 mi Variable 3.5 mph - N/A   Scattered Clouds
10:15 AM 66.2 °F 46.4 °F 49% 30.32 in 7.0 mi Calm Calm - N/A   Clear
10:35 AM 66.2 °F 48.2 °F 52% 30.32 in - Calm Calm - N/A   Clear
10:55 AM 68.0 °F 48.2 °F 49% 30.31 in 8.0 mi West 11.5 mph - N/A   Partly Cloudy
11:15 AM 66.2 °F 48.2 °F 52% 30.31 in 7.0 mi West 10.4 mph - N/A   Scattered Clouds
11:35 AM 64.4 °F 50.0 °F 59% 30.30 in 5.0 mi NW 19.6 mph - N/A   Haze
11:55 AM 64.4 °F 50.0 °F 59% 30.29 in 6.0 mi NW 15.0 mph - N/A   Haze
12:15 PM 64.4 °F 50.0 °F 59% 30.28 in 5.0 mi NW 13.8 mph - N/A   Haze
12:35 PM 66.2 °F 50.0 °F 56% 30.27 in 5.0 mi NW 11.5 mph - N/A   Haze
12:55 PM 66.2 °F 50.0 °F 56% 30.26 in 5.0 mi NW 10.4 mph - N/A   Haze
1:15 PM 66.2 °F 48.2 °F 52% 30.25 in 5.0 mi NW 8.1 mph - N/A   Haze
1:35 PM 66.2 °F 48.2 °F 52% 30.26 in 5.0 mi NW 10.4 mph - N/A   Haze
1:55 PM 66.2 °F 46.4 °F 49% 30.26 in 5.0 mi NW 10.4 mph - N/A   Haze
2:15 PM 68.0 °F 46.4 °F 46% 30.26 in 5.0 mi NW 9.2 mph - N/A   Haze
2:35 PM 66.2 °F 46.4 °F 49% 30.26 in 6.0 mi NW 9.2 mph - N/A   Haze
2:55 PM 66.2 °F 44.6 °F 46% 30.26 in 5.0 mi NW 11.5 mph - N/A   Haze
3:15 PM 66.2 °F 37.4 °F 35% 30.27 in 5.0 mi NNW 11.5 mph - N/A   Haze
3:35 PM 66.2 °F 33.8 °F 30% 30.27 in 6.0 mi NW 15.0 mph - N/A   Haze
3:55 PM 66.2 °F 35.6 °F 32% 30.27 in 6.0 mi NW 12.7 mph - N/A   Haze
4:15 PM 66.2 °F 32.0 °F 28% 30.27 in 7.0 mi NW 15.0 mph - N/A   Overcast
4:35 PM 66.2 °F 30.2 °F 26% 30.28 in 7.0 mi NW 15.0 mph - N/A   Overcast
4:55 PM 66.2 °F 26.6 °F 23% 30.28 in 5.0 mi NW 13.8 mph - N/A   Haze
5:15 PM 66.2 °F 33.8 °F 30% 30.29 in 5.0 mi NW 13.8 mph - N/A   Haze
5:35 PM 66.2 °F 28.4 °F 24% 30.29 in 5.0 mi NW 10.4 mph - N/A   Haze
5:55 PM 66.2 °F 33.8 °F 30% 30.29 in 5.0 mi NW 10.4 mph - N/A   Haze
6:15 PM 66.2 °F 35.6 °F 32% 30.29 in 6.0 mi West 10.4 mph - N/A   Haze
6:35 PM 66.2 °F 37.4 °F 35% 30.29 in 8.0 mi WNW 9.2 mph - N/A   Partly Cloudy
6:55 PM 66.2 °F 33.8 °F 30% 30.29 in 7.0 mi WNW 10.4 mph - N/A   Clear
7:15 PM 66.2 °F 33.8 °F 30% 30.30 in 6.0 mi WNW 13.8 mph - N/A   Haze
7:35 PM 66.2 °F 33.8 °F 30% 30.30 in 8.0 mi WNW 11.5 mph - N/A   Clear
7:55 PM 66.2 °F 37.4 °F 35% 30.30 in 7.0 mi WNW 12.7 mph - N/A   Clear
8:15 PM 66.2 °F 37.4 °F 35% 30.31 in 5.0 mi WNW 11.5 mph - N/A   Haze
8:35 PM 66.2 °F 39.2 °F 37% 30.31 in 7.0 mi WNW 12.7 mph - N/A   Clear
8:55 PM 64.4 °F 35.6 °F 34% 30.32 in 6.0 mi WNW 15.0 mph - N/A   Haze
9:15 PM 64.4 °F 37.4 °F 37% 30.32 in 7.0 mi WNW 12.7 mph - N/A   Clear
9:35 PM 64.4 °F 39.2 °F 40% 30.32 in 6.0 mi WNW 12.7 mph - N/A   Haze
9:55 PM 64.4 °F 39.2 °F 40% 30.32 in 6.0 mi WNW 15.0 mph - N/A   Haze
10:15 PM 64.4 °F 39.2 °F 40% 30.32 in 6.0 mi WNW 16.1 mph - N/A   Haze
10:35 PM 64.4 °F 39.2 °F 40% 30.31 in 5.0 mi WNW 17.3 mph - N/A   Haze
10:55 PM 64.4 °F 41.0 °F 42% 30.31 in 6.0 mi WNW 16.1 mph - N/A   Haze
11:15 PM 64.4 °F 41.0 °F 42% 30.31 in 5.0 mi NW 17.3 mph - N/A   Haze
11:35 PM 64.4 °F 42.8 °F 45% 30.31 in 5.0 mi NW 13.8 mph 20.7 mph N/A   Haze
11:55 PM 64.4 °F 44.6 °F 49% 30.30 in 5.0 mi WNW 17.3 mph - N/A   Haze